Home   Weather   Cap-Haïtien   Past weeks

Flag for Haiti Past Weather in Cap-Haïtien, Haiti — Yesterday and Last 2 Weeks

Now
61 °F

Passing clouds.


Feels Like: 61 °F
Forecast: 72 / 82 °F
Wind: 3 mph from North

Location: Santiago

Current Time: Jan 24, 2017 at 6:28:33 am

Latest Report: Jan 24, 2017 at 6:00 am


Visibility: N/A

Pressure: 29.86 "Hg

Humidity: 100%

Dew Point: 61 °F

Location of Cap-HaïtienLocation

Past Weather in Cap-Haïtien — Graph

°F

Cap-Haïtien Temperature Yesterday

Maximum temperature yesterday: 84 °F (at 3:00 pm)
Minimum temperature yesterday: 61 °F (at 7:00 am)
Average temperature yesterday: 72 °F

High & Low Weather Summary for the Past Weeks

 TemperatureHumidityPressure
High84 °F (Jan 20, 1:00 pm)100% (Jan 9, 5:00 am)30.18 "Hg (Jan 9, 5:00 am)
Low57 °F (Jan 19, 5:00 am)45% (Jan 19, 4:00 pm)29.77 "Hg (Jan 23, 3:00 pm)
Average70 °F87%30.05 "Hg
* Reported Jan 9 5:00 am — Jan 24 5:00 am, Cap-Haïtien, Weather by CustomWeather, © 2017

Note: Actual official high and low records may vary slightly from our data, if they occured in-between our weather recording intervals... More about our weather records

Advertising

Cap-Haïtien Weather History for the Previous 24 Hours

Scroll right to see more
 ConditionsComfort  
Time TempWeatherWind HumidityBarometerVisibility
5:00 am
Tue, Jan 24
61 °FPassing clouds.No wind100%29.83 "HgN/A
4:00 am61 °FPassing clouds.No wind100%29.83 "HgN/A
3:00 am63 °FPassing clouds.No wind100%29.83 "HgN/A
2:00 am63 °FPassing clouds.No wind100%29.86 "HgN/A
1:00 am63 °FPassing clouds.No wind100%29.83 "HgN/A
12:00 am66 °FPassing clouds.No wind100%29.86 "HgN/A
11:00 pm
Mon, Jan 23
68 °FPassing clouds.No wind100%29.86 "HgN/A
10:00 pm72 °FPassing clouds.3 mph100%29.86 "HgN/A
9:00 pm72 °FPassing clouds.7 mph94%29.86 "HgN/A
8:00 pm72 °FPassing clouds.13 mph94%29.83 "HgN/A
7:00 pm75 °FPassing clouds.12 mph83%29.83 "HgN/A
6:00 pm75 °FPassing clouds.9 mph83%29.80 "HgN/A
5:00 pm81 °FPassing clouds.13 mph70%29.77 "HgN/A
4:00 pm84 °FPassing clouds.12 mph51%29.77 "HgN/A
3:00 pm84 °FPassing clouds.12 mph66%29.77 "HgN/A
1:00 pm82 °FPassing clouds.9 mph55%29.83 "HgN/A
12:00 pm79 °FPassing clouds.No wind74%29.89 "HgN/A
11:00 am77 °FPassing clouds.6 mph79%29.92 "HgN/A
10:00 am75 °FPassing clouds.8 mph78%29.95 "HgN/A
9:00 am72 °FScattered clouds.9 mph94%29.95 "HgN/A
8:00 am68 °FPassing clouds.3 mph94%29.95 "HgN/A
7:00 am61 °FPassing clouds.No wind100%29.92 "HgN/A
6:00 am63 °FPassing clouds.No wind100%29.92 "HgN/A
Weather by CustomWeather, © 2017

See weather overviewHow to use our weather pages